Le nostre stazioni meteo in Italia

Pubblicità
Il mio iltempo24.it
Comiso, Italia (16475): Temperatura & dewpoint: 09.09.2019 21:00:00 - 15.09.2019 21:00:00 (CEST)Comiso, Italia (16475): velocità del vento: 09.09.2019 21:00:00 - 15.09.2019 21:00:00 (CEST)Comiso, Italia (16475): direzione del vento: 09.09.2019 21:00:00 - 15.09.2019 21:00:00 (CEST)Comiso, Italia (16475): visibility: 09.09.2019 21:00:00 - 15.09.2019 21:00:00 (CEST)
Data & Tempo tt [°C] td [°C] ff [km/h] ff [kn] dd vv [km]
15.09.2019 21:00:00 - - - - - -
15.09.2019 20:00:00 23,0 20,0 8 4 OSO 10
15.09.2019 19:00:00 25,0 17,0 11 6 OSO 10
15.09.2019 18:00:00 26,0 17,0 13 7 OSO 10
15.09.2019 17:00:00 27,0 16,0 13 7 OSO 10
15.09.2019 16:00:00 27,0 15,0 15 8 OSO 10
15.09.2019 15:00:00 28,0 15,0 18 10 OSO 10
15.09.2019 14:00:00 29,0 16,0 16 9 SO 10
15.09.2019 13:00:00 29,0 13,0 5 3 - 10
15.09.2019 12:00:00 28,0 11,0 8 4 SSO 10
15.09.2019 11:00:00 28,0 11,0 4 2 - 10
15.09.2019 10:00:00 26,0 12,0 4 2 - 10
15.09.2019 09:00:00 24,0 12,0 4 2 - 10
15.09.2019 08:00:00 18,0 12,0 4 2 ENE 10
15.09.2019 07:00:00 16,0 11,0 4 2 - 10
15.09.2019 06:00:00 17,0 11,0 9 5 NE 10
15.09.2019 05:00:00 17,0 11,0 9 5 ENE 10
15.09.2019 04:00:00 16,0 11,0 9 5 NE 10
15.09.2019 03:00:00 17,0 13,0 8 4 ENE 10
15.09.2019 02:00:00 17,0 13,0 8 4 E 10
15.09.2019 01:00:00 18,0 15,0 8 4 ENE 10
15.09.2019 00:00:00 18,0 15,0 9 5 ENE 10
14.09.2019 23:00:00 19,0 16,0 4 2 E 10
14.09.2019 22:00:00 20,0 17,0 2 1 ENE 10
14.09.2019 21:00:00 22,0 19,0 4 2 - 10
14.09.2019 20:00:00 23,0 19,0 5 3 OSO 10
14.09.2019 19:00:00 25,0 17,0 13 7 OSO 10
14.09.2019 18:00:00 26,0 18,0 15 8 O 10
14.09.2019 17:00:00 27,0 16,0 15 8 O 10
14.09.2019 16:00:00 28,0 14,0 16 9 OSO 10
14.09.2019 15:00:00 28,0 14,0 21 11 OSO 10
14.09.2019 14:00:00 29,0 12,0 18 10 OSO 10
14.09.2019 13:00:00 - - - - - -
14.09.2019 12:00:00 29,0 11,0 8 4 NNO 10
14.09.2019 11:00:00 29,0 10,0 4 2 - 10
14.09.2019 10:00:00 27,0 11,0 4 2 - 10
14.09.2019 09:00:00 24,0 15,0 4 2 - 10
14.09.2019 08:00:00 19,0 14,0 9 5 ENE 10
14.09.2019 07:00:00 17,0 13,0 11 6 ENE 10
14.09.2019 06:00:00 17,0 14,0 9 5 ENE 10
14.09.2019 05:00:00 18,0 14,0 9 5 ENE 10
14.09.2019 04:00:00 18,0 14,0 9 5 ENE 10
14.09.2019 03:00:00 18,0 14,0 5 3 ENE 10
14.09.2019 02:00:00 18,0 14,0 8 4 ENE 10
14.09.2019 01:00:00 19,0 15,0 9 5 ENE 10
14.09.2019 00:00:00 19,0 15,0 8 4 ENE 10
13.09.2019 23:00:00 21,0 17,0 5 3 ENE 10
13.09.2019 22:00:00 21,0 18,0 5 3 ENE 10
13.09.2019 21:00:00 23,0 19,0 5 3 SE 10
13.09.2019 20:00:00 24,0 19,0 4 2 OSO 10
13.09.2019 19:00:00 25,0 18,0 11 6 OSO 10
13.09.2019 18:00:00 27,0 17,0 16 9 O 10
13.09.2019 17:00:00 28,0 16,0 16 9 OSO 10
13.09.2019 16:00:00 28,0 17,0 15 8 OSO 10
13.09.2019 15:00:00 29,0 16,0 18 10 OSO 10
13.09.2019 14:00:00 29,0 16,0 22 12 OSO 10
13.09.2019 13:00:00 30,0 15,0 15 8 SO 10
13.09.2019 12:00:00 30,0 11,0 13 7 NE 10
13.09.2019 11:00:00 28,0 13,0 13 7 NNE 10
13.09.2019 10:00:00 27,0 12,0 16 9 NNE 10
13.09.2019 09:00:00 24,0 15,0 11 6 NE 10
13.09.2019 08:00:00 20,0 16,0 8 4 NE 10
13.09.2019 07:00:00 18,0 16,0 9 5 NE 9
13.09.2019 06:00:00 18,0 17,0 13 7 ENE 10
13.09.2019 05:00:00 18,0 17,0 8 4 NE 10
13.09.2019 04:00:00 19,0 18,0 11 6 ENE 9
13.09.2019 03:00:00 20,0 18,0 4 2 - 10
13.09.2019 02:00:00 22,0 20,0 2 1 - 10
13.09.2019 01:00:00 22,0 19,0 5 3 E 10
13.09.2019 00:00:00 22,0 19,0 4 2 E 10
12.09.2019 23:00:00 22,0 19,0 4 2 E 10
12.09.2019 22:00:00 22,0 19,0 2 1 - 10
12.09.2019 21:00:00 23,0 19,0 2 1 - 10
12.09.2019 20:00:00 - - - - - -
12.09.2019 19:00:00 25,0 19,0 16 9 OSO 10
12.09.2019 18:00:00 27,0 19,0 16 9 OSO 10
12.09.2019 17:00:00 29,0 18,0 16 9 OSO 10
12.09.2019 16:00:00 29,0 17,0 16 9 SO 10
12.09.2019 15:00:00 30,0 17,0 15 8 OSO 10
12.09.2019 14:00:00 31,0 16,0 11 6 O 10
12.09.2019 13:00:00 - - - - - -
12.09.2019 12:00:00 - - - - - -
12.09.2019 11:00:00 27,0 18,0 4 2 - 10
12.09.2019 10:00:00 27,0 17,0 4 2 - 10
12.09.2019 09:00:00 25,0 18,0 5 3 E 10
12.09.2019 08:00:00 19,0 17,0 5 3 E 10
12.09.2019 07:00:00 18,0 17,0 4 2 - 10
12.09.2019 06:00:00 18,0 17,0 4 2 - 10
12.09.2019 05:00:00 18,0 16,0 5 3 NNE 10
12.09.2019 04:00:00 19,0 16,0 5 3 NE 10
12.09.2019 03:00:00 19,0 16,0 8 4 E 10
12.09.2019 02:00:00 19,0 16,0 8 4 ESE 10
12.09.2019 01:00:00 19,0 17,0 4 2 - 10
12.09.2019 00:00:00 20,0 17,0 5 3 NE 10
11.09.2019 23:00:00 20,0 17,0 5 3 NE 10
11.09.2019 22:00:00 21,0 17,0 2 1 - 10
11.09.2019 21:00:00 22,0 17,0 5 3 ESE 10
11.09.2019 20:00:00 24,0 16,0 5 3 NO 10
11.09.2019 19:00:00 26,0 15,0 5 3 O 10
11.09.2019 18:00:00 - - - - - -
11.09.2019 17:00:00 27,0 17,0 11 6 SO 10
11.09.2019 16:00:00 26,0 18,0 11 6 SO 10
11.09.2019 15:00:00 26,0 17,0 13 7 NNO 10
11.09.2019 14:00:00 27,0 16,0 4 2 - 10
11.09.2019 13:00:00 29,0 15,0 5 3 - 10
11.09.2019 12:00:00 26,0 14,0 8 4 NNO 10
11.09.2019 11:00:00 26,0 16,0 5 3 NNE 10
11.09.2019 10:00:00 24,0 16,0 5 3 ESE 10
11.09.2019 09:00:00 22,0 16,0 4 2 - 10
11.09.2019 08:00:00 21,0 16,0 8 4 ENE 10
11.09.2019 07:00:00 20,0 16,0 8 4 NNO 10
11.09.2019 06:00:00 20,0 15,0 4 2 ENE 10
11.09.2019 05:00:00 20,0 15,0 4 2 - 10
11.09.2019 04:00:00 20,0 15,0 8 4 ENE 10
11.09.2019 03:00:00 19,0 16,0 2 1 - 10
11.09.2019 02:00:00 20,0 15,0 2 1 - 10
11.09.2019 01:00:00 20,0 17,0 5 3 NNE 10
11.09.2019 00:00:00 20,0 16,0 2 1 - 10
10.09.2019 23:00:00 21,0 17,0 9 5 N 10
10.09.2019 22:00:00 21,0 18,0 5 3 SSO 10
10.09.2019 21:00:00 21,0 16,0 22 12 NE 10
10.09.2019 20:00:00 22,0 18,0 18 10 NNE 10
10.09.2019 19:00:00 24,0 18,0 13 7 SO 10
10.09.2019 18:00:00 26,0 17,0 13 7 SSO 10
10.09.2019 17:00:00 27,0 18,0 13 7 SSE 10
10.09.2019 16:00:00 28,0 16,0 4 2 - 10
10.09.2019 15:00:00 28,0 16,0 8 4 S 10
10.09.2019 14:00:00 28,0 16,0 8 4 - 10
10.09.2019 13:00:00 - - - - - -
10.09.2019 12:00:00 27,0 16,0 4 2 - 10
10.09.2019 11:00:00 25,0 18,0 4 2 - 10
10.09.2019 10:00:00 23,0 18,0 2 1 - 10
10.09.2019 09:00:00 22,0 18,0 4 2 - 10
10.09.2019 08:00:00 20,0 18,0 8 4 ESE 10
10.09.2019 07:00:00 20,0 17,0 8 4 NNE 10
10.09.2019 06:00:00 19,0 16,0 8 4 NE 10
10.09.2019 05:00:00 19,0 15,0 2 1 - 10
10.09.2019 04:00:00 19,0 16,0 8 4 ENE 10
10.09.2019 03:00:00 19,0 16,0 2 1 - 10
10.09.2019 02:00:00 20,0 15,0 5 3 SE 10
10.09.2019 01:00:00 21,0 15,0 4 2 - 10
10.09.2019 00:00:00 21,0 16,0 5 3 SSE 10
09.09.2019 23:00:00 21,0 18,0 4 2 - 10
09.09.2019 22:00:00 21,0 19,0 2 1 - 10
09.09.2019 21:00:00 22,0 19,0 2 1 - 10

tt = Temperatura
td = dewpoint
ff = velocità del vento
dd = direzione del vento
vv = visibility

Stazioni seguenti

WeatherPro
AMSI
MeteoEarth